Regional Weather Roundup
Issued by NWS

Home | Current Version | Previous Version | Text Only | Print | Product List | Glossary On
Versions: 1 2 3 4 5 6 7 8 9 10 11 12 13 14 15 16 17 18 19 20 21 22 23 24 25 26 27 28 29 30 31 32 33 34 35 36 37 38 39 40 41 42 43 44 45 46 47 48 49 50
000
ASUS43 KLSX 270407
RWRMO

WEATHER SUMMARY FOR MISSOURI
NATIONAL WEATHER SERVICE SPRINGFIELD MO
1000 PM CST MON JAN 26 2015

NOTE: "FAIR" INDICATES FEW OR NO CLOUDS BELOW 12,000 FEET WITH NO
       SIGNIFICANT WEATHER AND/OR OBSTRUCTIONS TO VISIBILITY.
       CURRENT SKY AND/OR WEATHER CONDITIONS ARE NOT AVAILABLE FOR
       CHILLICOTHE AND FARMINGTON.

MOZ001>031-035>038-043-044-053-054-270500-
...NORTHERN AND WESTERN MISSOURI...

CITY           SKY/WX    TMP DP  RH WIND       PRES   REMARKS
KANSAS CTY INT CLEAR     45  32  60 NW8       30.01R
KANSAS C DTWN  CLEAR     43  32  65 CALM      30.01R
LEE`S SUMMIT   CLEAR     48  32  53 NW5       30.00S
ST JOSEPH      CLEAR     30  25  81 CALM      30.02R
CHILLICOTHE      N/A     47  34  60 NW7       29.98S
KIRKSVILLE     PTCLDY    42  35  76 NW9       29.94S

$$
MOZ066>068-077>081-088>096-101>105-270500-
...SOUTHWEST MISSOURI...

CITY           SKY/WX    TMP DP  RH WIND       PRES   REMARKS
SPRINGFIELD    CLEAR     46  35  65 W8        29.99S
JOPLIN         CLEAR     47  34  60 MISG      30.02R

$$
MOZ032>034-039>042-045>050-055>058-069>072-270500-
...CENTRAL MISSOURI...

CITY           SKY/WX    TMP DP  RH WIND       PRES   REMARKS
COLUMBIA       CLEAR     43  35  73 NW10      29.95R
JEFFERSON CITY CLEAR     35  31  85 N3        29.96R
ROLLA          CLEAR     42  34  73 W9        29.93R
SEDALIA        CLEAR     45  33  63 NW10      29.99R
WHITEMAN AFB   PTCLDY    47  33  58 NW8       29.98S
WARRENSBURG    PTCLDY    45  32  61 CALM      30.00S
OSAGE BEACH    CLEAR     46  34  61 NW5       29.97R

$$
MOZ051-052-059>065-270500-
...EAST CENTRAL MISSOURI...

CITY           SKY/WX    TMP DP  RH WIND       PRES   REMARKS
ST LOUIS INTL  CLOUDY    37  30  75 CALM      29.92S
SPIRIT OF STL  CLOUDY    33  31  92 CALM      29.91F
ST CHARLES     CLOUDY    34  31  88 VRB3      29.91F

$$
MOZ072>076-082>087-097>100-106>115-270500-
...SOUTH CENTRAL AND SOUTHEAST MISSOURI...

CITY           SKY/WX    TMP DP  RH WIND       PRES   REMARKS
CAPE GIRARDEAU CLEAR     30  28  92 E3        29.94S
FARMINGTON     PTCLDY    30  27  86 MISG      29.94S
POPLAR BLUFF   CLEAR     32  28  85 CALM      29.92S
WEST PLAINS    CLEAR     46  34  62 W7        29.95S

$$


USA.gov is the U.S. government's official web portal to all federal, state and local government web resources and services.